MARY ISLAND AK US NWS current weather conditions

sailwx.info

Wind from 170 at 2 knots gusting 12

Air temperature 14.3° C
Dewpoint 13.0° C

Last reported at 2020-Aug-05 04:32 UTC.
Time now 2020-Aug-05 05:13 UTC

Location: N 55°06' W 131°11'.
View on Google Maps.

See reports from other nearby stations

  
Tides and Currents Weather Stations Pressure Air Temp Water Temp Dewpoint Dewpoint Depression Visibility Wind Speed Wind Dir Waves Ship Positions
date/time (UTC)wind fromknots sea level pressurealtimeterstation pressurevisibilityair tempwater tempwave heightnotes
2020-Aug-05 04:32 170 2 gusting 12 14.3
2020-Aug-05 04:22 180 2 gusting 12 14.3
2020-Aug-05 04:12 170 4 gusting 13 14.3
2020-Aug-05 04:02 180 5 gusting 15 14.2
2020-Aug-05 03:52 170 2 gusting 9 14.3
2020-Aug-05 03:42 180 2 gusting 6 14.2
2020-Aug-05 03:32 180 2 gusting 9 14.2
2020-Aug-05 03:22 180 4 gusting 11 14.2
2020-Aug-05 03:12 170 4 gusting 12 14.2
2020-Aug-05 03:02 170 4 gusting 11 14.2
2020-Aug-05 02:52 170 4 gusting 12 14.1
2020-Aug-05 02:42 160 5 gusting 13 14.1
2020-Aug-05 02:32 160 5 gusting 12 14.0
2020-Aug-05 02:22 170 5 gusting 13 14.0
2020-Aug-05 02:12 170 5 gusting 17 13.9
2020-Aug-05 02:02 170 5 gusting 13 13.8
2020-Aug-05 01:52 180 5 gusting 13 13.9
2020-Aug-05 01:42 170 5 gusting 12 13.8
2020-Aug-05 01:32 180 5 gusting 13 13.8
2020-Aug-05 01:22 180 5 gusting 13 13.7
2020-Aug-05 01:12 170 6 gusting 17 13.7
2020-Aug-05 01:02 170 5 gusting 13 13.7
2020-Aug-05 00:52 170 5 gusting 13 13.7
2020-Aug-05 00:42 170 5 gusting 12 13.8
2020-Aug-05 00:32 170 5 gusting 13 13.7
2020-Aug-05 00:22 180 4 gusting 11 13.6
2020-Aug-05 00:12 180 5 gusting 13 13.5
2020-Aug-04 23:52 180 6 gusting 20 13.5
2020-Aug-04 23:42 170 6 gusting 18 13.5
2020-Aug-04 23:32 170 6 gusting 20 13.5
2020-Aug-04 23:22 170 5 gusting 19 13.6
2020-Aug-04 23:12 180 6 gusting 18 13.7
2020-Aug-04 23:02 180 6 gusting 17 13.7
2020-Aug-04 22:52 170 6 gusting 20 13.6
2020-Aug-04 22:42 160 5 gusting 13 13.7
2020-Aug-04 22:32 180 5 gusting 14 13.5
2020-Aug-04 22:22 180 5 gusting 14 13.5
2020-Aug-04 22:12 170 5 gusting 13 13.5
2020-Aug-04 22:02 180 5 gusting 12 13.5
2020-Aug-04 21:52 180 6 gusting 15 13.5
2020-Aug-04 21:42 180 5 gusting 17 13.6
2020-Aug-04 21:32 170 6 gusting 14 13.6
2020-Aug-04 21:22 170 6 gusting 14 13.6
2020-Aug-04 21:12 180 5 gusting 13 13.7
2020-Aug-04 21:02 180 4 gusting 12 13.7
2020-Aug-04 20:52 180 4 gusting 9 13.8
2020-Aug-04 20:42 180 4 gusting 11 13.8
2020-Aug-04 20:32 170 4 gusting 12 13.8
2020-Aug-04 20:22 170 5 gusting 12 13.7
2020-Aug-04 20:12 170 5 gusting 13 13.6
2020-Aug-04 20:02 180 5 gusting 13 13.6
2020-Aug-04 19:52 180 5 gusting 13 13.6
2020-Aug-04 19:42 180 5 gusting 13 13.5
2020-Aug-04 19:32 180 6 gusting 15 13.5
2020-Aug-04 19:22 180 6 gusting 19 13.6
2020-Aug-04 19:12 180 6 gusting 17 13.7
2020-Aug-04 19:02 180 6 gusting 15 13.7
2020-Aug-04 18:52 180 6 gusting 18 13.7
2020-Aug-04 18:42 170 6 gusting 19 13.7
2020-Aug-04 18:32 170 6 gusting 17 13.7
2020-Aug-04 18:22 170 6 gusting 15 13.6
2020-Aug-04 18:12 160 6 gusting 17 13.7
2020-Aug-04 18:02 160 7 gusting 18 13.6
2020-Aug-04 17:52 160 7 gusting 18 13.6
2020-Aug-04 17:42 160 6 gusting 18 13.5
2020-Aug-04 17:32 160 6 gusting 15 13.5
2020-Aug-04 17:22 150 7 gusting 14 13.5
2020-Aug-04 17:12 150 7 gusting 15 13.5
2020-Aug-04 17:02 140 7 gusting 14 13.5
2020-Aug-04 16:52 150 7 gusting 14 13.6
2020-Aug-04 16:42 160 6 gusting 17 13.7
2020-Aug-04 16:32 170 5 gusting 13 13.8
2020-Aug-04 16:22 150 5 gusting 12 13.8
2020-Aug-04 16:12 150 6 gusting 12 13.8
2020-Aug-04 16:02 150 6 gusting 13 13.8
2020-Aug-04 15:52 150 6 gusting 13 13.7
2020-Aug-04 15:42 150 7 gusting 13 13.6
2020-Aug-04 15:32 140 6 gusting 13 13.6
2020-Aug-04 15:22 140 7 gusting 13 13.5
2020-Aug-04 15:12 150 6 gusting 13 13.4
2020-Aug-04 15:02 150 6 gusting 13 13.3
2020-Aug-04 14:52 150 6 gusting 13 13.3
2020-Aug-04 14:42 160 5 gusting 14 13.2
2020-Aug-04 14:32 160 5 gusting 13 13.2
2020-Aug-04 14:22 160 5 gusting 12 13.2
2020-Aug-04 14:12 150 6 gusting 13 13.2
2020-Aug-04 14:02 160 6 gusting 13 13.2
2020-Aug-04 13:52 160 6 gusting 15 13.2
2020-Aug-04 13:42 160 6 gusting 17 13.2
2020-Aug-04 13:32 170 6 gusting 13 13.1
2020-Aug-04 13:22 170 6 gusting 18 13.1
2020-Aug-04 13:12 170 6 gusting 17 13.1
2020-Aug-04 13:02 180 6 gusting 15 13.0
2020-Aug-04 12:52 180 6 gusting 15 13.0
2020-Aug-04 12:42 170 6 gusting 20 13.1
2020-Aug-04 12:32 180 6 gusting 15 13.0
2020-Aug-04 12:22 180 6 gusting 15 12.9
2020-Aug-04 12:12 180 6 gusting 15 13.1
2020-Aug-04 12:02 170 6 gusting 17 13.1
2020-Aug-04 11:52 180 6 gusting 15 13.1
2020-Aug-04 11:42 170 6 gusting 15 13.1
2020-Aug-04 11:32 170 6 gusting 14 13.3
2020-Aug-04 11:22 170 6 gusting 14 13.3
2020-Aug-04 11:12 170 6 gusting 19 13.4
2020-Aug-04 11:02 170 6 gusting 15 13.5
2020-Aug-04 10:52 180 6 gusting 14 13.4
2020-Aug-04 10:42 180 6 gusting 18 13.4
2020-Aug-04 10:32 170 6 gusting 20 13.3
2020-Aug-04 10:22 180 6 gusting 18 13.6
2020-Aug-04 10:12 170 5 gusting 15 13.6
2020-Aug-04 10:02 170 5 gusting 15 13.7
2020-Aug-04 09:52 170 5 gusting 17 13.8
2020-Aug-04 09:42 170 6 gusting 20 13.9
2020-Aug-04 09:32 170 5 gusting 14 14.1
2020-Aug-04 09:22 180 4 gusting 13 14.2
2020-Aug-04 09:12 180 4 gusting 13 14.3
2020-Aug-04 09:02 180 4 gusting 12 14.3
2020-Aug-04 08:52 180 4 gusting 12 14.3
2020-Aug-04 08:42 180 4 gusting 13 14.4
2020-Aug-04 08:32 180 4 gusting 12 14.5
2020-Aug-04 08:22 170 5 gusting 13 14.4
2020-Aug-04 08:12 180 5 gusting 13 14.4
2020-Aug-04 08:02 180 5 gusting 13 14.4
2020-Aug-04 07:52 180 5 gusting 11 14.4
2020-Aug-04 07:42 180 4 gusting 11 14.6
2020-Aug-04 07:32 160 5 gusting 11 14.6
2020-Aug-04 07:22 150 5 gusting 12 14.6
2020-Aug-04 07:12 170 2 gusting 9 14.6
2020-Aug-04 07:02 160 2 gusting 6 14.6
2020-Aug-04 06:52 160 2 gusting 6 14.5
2020-Aug-04 06:42 170 1 gusting 6 14.4
2020-Aug-04 06:32 180 1 gusting 6 14.5
2020-Aug-04 06:22 170 1 gusting 6 14.6
2020-Aug-04 06:12 170 1 gusting 6 14.6
2020-Aug-04 06:02 160 2 gusting 6 14.6
2020-Aug-04 05:52 180 1 gusting 6 14.6
2020-Aug-04 05:42 190 1 gusting 4 14.3
2020-Aug-04 05:32 210 0 gusting 2 14.4
2020-Aug-04 05:22 210 0 gusting 2 14.4
2020-Aug-04 05:12 190 1 gusting 4 14.5
2020-Aug-04 05:02 200 0 gusting 2 14.5
2020-Aug-04 04:52 190 1 gusting 5 14.6
2020-Aug-04 04:42 190 1 gusting 5 14.5
2020-Aug-04 04:32 190 1 gusting 6 14.4
2020-Aug-04 04:22 200 1 gusting 4 14.5
2020-Aug-04 04:12 180 1 gusting 5 14.6
2020-Aug-04 04:02 180 1 gusting 5 14.6
2020-Aug-04 03:52 170 1 gusting 6 14.6
2020-Aug-04 03:42 180 1 gusting 6 14.7
2020-Aug-04 03:32 170 1 gusting 6 14.8
2020-Aug-04 03:22 180 1 gusting 6 14.9
2020-Aug-04 03:12 180 2 gusting 9 14.8
2020-Aug-04 03:02 170 2 gusting 8 14.7
2020-Aug-04 02:52 170 4 gusting 13 14.8
2020-Aug-04 02:42 170 4 gusting 9 14.9
2020-Aug-04 02:32 170 4 gusting 11 14.7
2020-Aug-04 02:22 180 4 gusting 12 14.7
2020-Aug-04 02:12 170 5 gusting 13 14.8
2020-Aug-04 02:02 170 4 gusting 12 14.9
2020-Aug-04 01:52 160 5 gusting 12 15.1
2020-Aug-04 01:42 170 5 gusting 13 15.1
2020-Aug-04 01:32 170 5 gusting 14 15.2
2020-Aug-04 01:22 170 6 gusting 13 15.2
2020-Aug-04 01:12 170 6 gusting 13 15.2
2020-Aug-04 01:02 170 6 gusting 13 15.4
2020-Aug-04 00:52 170 6 gusting 13 15.5
2020-Aug-04 00:42 170 6 gusting 14 15.6
2020-Aug-04 00:32 170 6 gusting 14 15.7
2020-Aug-04 00:22 170 5 gusting 13 15.7
2020-Aug-04 00:12 170 5 gusting 13 15.8
2020-Aug-03 23:52 170 6 gusting 13 16.0
2020-Aug-03 23:42 170 6 gusting 14 16.0
2020-Aug-03 23:32 170 5 gusting 12 16.7
2020-Aug-03 23:22 170 4 gusting 11 17.2
2020-Aug-03 23:12 160 2 gusting 7 17.3
2020-Aug-03 23:02 150 1 gusting 7 17.7
2020-Aug-03 22:52 150 1 gusting 6 17.7
2020-Aug-03 22:42 150 1 gusting 6 17.9
2020-Aug-03 22:32 170 1 gusting 5 18.0
2020-Aug-03 22:22 160 1 gusting 6 18.1
2020-Aug-03 22:12 160 1 gusting 5 18.2
2020-Aug-03 22:02 160 1 gusting 6 18.1
2020-Aug-03 21:52 160 1 gusting 6 17.9
2020-Aug-03 21:42 160 1 gusting 6 18.0
2020-Aug-03 21:32 170 1 gusting 6 18.2
2020-Aug-03 21:22 150 2 gusting 6 19.1
2020-Aug-03 21:12 140 1 gusting 6 19.7
2020-Aug-03 21:02 160 1 gusting 5 19.1
2020-Aug-03 20:52 130 2 gusting 7 18.9
2020-Aug-03 20:42 140 1 gusting 7 18.6
2020-Aug-03 20:32 150 1 gusting 6 18.3
2020-Aug-03 20:22 170 1 gusting 5 17.5
2020-Aug-03 20:12 180 0 gusting 2 17.3
2020-Aug-03 20:02 150 1 gusting 6 17.1
2020-Aug-03 19:52 170 2 gusting 6 17.0
2020-Aug-03 19:42 150 2 gusting 8 16.3
2020-Aug-03 19:32 170 2 gusting 8 16.2
2020-Aug-03 19:22 180 2 gusting 7 16.3
2020-Aug-03 19:12 160 4 gusting 7 16.2
2020-Aug-03 19:02 170 2 gusting 7 15.7
2020-Aug-03 18:52 160 1 gusting 5 15.4
2020-Aug-03 18:42 160 1 gusting 5 15.3
2020-Aug-03 18:32 160 1 gusting 5 15.1
2020-Aug-03 18:22 160 1 gusting 5 14.8
2020-Aug-03 18:12 160 1 gusting 5 14.6
2020-Aug-03 18:02 170 1 gusting 6 14.5
2020-Aug-03 17:52 170 2 gusting 6 14.4
2020-Aug-03 17:42 170 1 gusting 6 14.4
2020-Aug-03 17:32 180 2 gusting 8 14.3
2020-Aug-03 17:22 170 2 gusting 8 14.3
2020-Aug-03 17:12 170 2 gusting 9 14.3
2020-Aug-03 17:02 170 4 gusting 11 14.3
2020-Aug-03 16:52 170 4 gusting 11 14.2
2020-Aug-03 16:42 170 2 gusting 9 14.2
2020-Aug-03 16:32 170 2 gusting 7 14.2
2020-Aug-03 16:22 170 4 gusting 9 14.2
2020-Aug-03 16:12 170 4 gusting 8 14.2
2020-Aug-03 16:02 180 4 gusting 9 14.2
2020-Aug-03 15:52 170 4 gusting 12 14.1
2020-Aug-03 15:42 180 1 gusting 6 14.2
2020-Aug-03 15:32 180 1 gusting 7 14.2
2020-Aug-03 15:22 170 1 gusting 6 14.2
2020-Aug-03 15:12 180 1 gusting 6 14.1
2020-Aug-03 15:02 180 1 gusting 6 14.1
2020-Aug-03 14:52 190 0 gusting 4 14.1
2020-Aug-03 14:42 210 0 gusting 2 14.0
2020-Aug-03 14:32 14.0
2020-Aug-03 14:22 13.9
2020-Aug-03 14:12 13.8
2020-Aug-03 14:02 13.8
2020-Aug-03 13:52 13.7
2020-Aug-03 13:42 190 0 gusting 2 13.7
2020-Aug-03 13:32 180 0 gusting 2 13.7
2020-Aug-03 13:22 13.8
2020-Aug-03 13:12 160 0 gusting 2 13.7
2020-Aug-03 13:02 160 0 gusting 2 13.7
2020-Aug-03 12:52 160 0 gusting 1 13.8
2020-Aug-03 12:42 13.8
2020-Aug-03 12:32 160 0 gusting 2 13.9
2020-Aug-03 12:22 160 0 gusting 2 14.0
2020-Aug-03 12:12 170 0 gusting 2 14.0
2020-Aug-03 12:02 150 0 gusting 4 14.1
2020-Aug-03 11:52 14.1
2020-Aug-03 11:42 150 0 gusting 2 14.0
2020-Aug-03 11:32 14.0
2020-Aug-03 11:22 160 0 gusting 2 14.0
2020-Aug-03 11:12 150 0 gusting 2 14.0
2020-Aug-03 11:02 14.0
2020-Aug-03 10:52 14.0
2020-Aug-03 10:42 14.0
2020-Aug-03 10:32 14.1
2020-Aug-03 10:22 14.0
2020-Aug-03 10:12 14.1
2020-Aug-03 10:02 150 0 gusting 2 14.0
2020-Aug-03 09:52 170 1 gusting 5 14.0
2020-Aug-03 09:42 170 0 gusting 4 13.9
2020-Aug-03 09:32 170 0 gusting 4 13.9
2020-Aug-03 09:22 170 1 gusting 5 13.8
2020-Aug-03 09:12 170 1 gusting 6 13.8
2020-Aug-03 09:02 170 1 gusting 5 13.8
2020-Aug-03 08:52 170 1 gusting 6 13.8
2020-Aug-03 08:42 170 1 gusting 5 13.8
2020-Aug-03 08:32 170 1 gusting 6 13.8
2020-Aug-03 08:22 170 1 gusting 5 13.8
2020-Aug-03 08:12 170 1 gusting 6 13.8
2020-Aug-03 08:02 170 2 gusting 6 13.9
2020-Aug-03 07:52 180 2 gusting 7 13.9
2020-Aug-03 07:42 170 2 gusting 7 13.9
2020-Aug-03 07:32 170 2 gusting 6 14.0
2020-Aug-03 07:22 170 2 gusting 6 14.0
2020-Aug-03 07:12 170 1 gusting 6 14.0
2020-Aug-03 07:02 170 2 gusting 6 14.0
2020-Aug-03 06:52 170 1 gusting 5 14.0
2020-Aug-03 06:42 170 1 gusting 6 13.9
2020-Aug-03 06:32 170 1 gusting 6 13.9
2020-Aug-03 06:22 170 1 gusting 5 13.8
2020-Aug-03 06:12 170 1 gusting 5 13.8
2020-Aug-03 06:02 170 1 gusting 5 13.8
2020-Aug-03 05:52 190 1 gusting 5 13.8
2020-Aug-03 05:42 180 1 gusting 6 13.9
2020-Aug-03 05:32 170 2 gusting 7 13.9
2020-Aug-03 05:22 160 2 gusting 6 13.9
2020-Aug-03 05:12 160 2 gusting 7 14.0
2020-Aug-03 05:02 180 2 gusting 6 14.0